BAW212 EPKK-EGLL

Flight info

Callsign BAW212
Flight time N/A
Altitude 38000
Route OMFOL DCT DINOV DCT NAROX DCT TOLTA DCT EXOBA DCT LARAS DCT ODVIL DCT ABNED L980 LOGAN
Aircraft A320/M-SDE3FGHIRWY/LB1

Departure

Time 2026-05-04 20:11
Airport Kraków John Paul II International Airport (EPKK)

Arrival

Time N/A
Airport London Heathrow Airport (EGLL)
Time Latitude Longitude Altitude Speed Heading
2026-05-04 19:47 50.07299 19.79884 800 ft 0 kts 167°
2026-05-04 20:05 50.07320 19.79877 800 ft 4 kts 163°
2026-05-04 20:05 50.07345 19.79862 800 ft 4 kts 152°
2026-05-04 20:05 50.07366 19.79839 800 ft 4 kts 116°
2026-05-04 20:06 50.07369 19.79816 800 ft 1 kts 77°
2026-05-04 20:06 50.07369 19.79812 800 ft 0 kts 77°
2026-05-04 20:08 50.07369 19.79818 800 ft 1 kts 77°
2026-05-04 20:08 50.07376 19.79865 800 ft 13 kts 77°
2026-05-04 20:08 50.07399 19.80029 800 ft 17 kts 77°
2026-05-04 20:09 50.07426 19.80219 800 ft 19 kts 77°
2026-05-04 20:09 50.07486 19.80383 800 ft 18 kts 18°
2026-05-04 20:09 50.07611 19.80417 800 ft 20 kts 354°
2026-05-04 20:09 50.07754 19.80369 800 ft 22 kts 347°
2026-05-04 20:10 50.07906 19.80314 800 ft 24 kts 347°
2026-05-04 20:10 50.08013 19.80186 800 ft 17 kts 254°
2026-05-04 20:10 50.07986 19.80012 801 ft 17 kts 258°
2026-05-04 20:10 50.07916 19.79499 800 ft 92 kts 257°
2026-05-04 20:11 50.07723 19.78141 822 ft 159 kts 257°
2026-05-04 20:11 50.07499 19.76419 1515 ft 166 kts 257°
2026-05-04 20:11 50.07251 19.74635 2433 ft 172 kts 255°
2026-05-04 20:11 50.06973 19.72704 3061 ft 194 kts 256°
2026-05-04 20:12 50.06669 19.70579 3721 ft 216 kts 256°
2026-05-04 20:12 50.06338 19.68252 4412 ft 222 kts 256°
2026-05-04 20:12 50.05983 19.65751 4876 ft 244 kts 256°